Kemmerer, WY

1:20 AM MDT on August 02, 2014 (GMT -0600)
Kemmerer Municipal (KEMM) Elev 7283 ft | 41.82 °N, 110.56 °W | Change Station

Current weather conditions updated 5 minutes ago

Clear
Clear
57 °F
Feels Like 57 °F
N
10
Wind Variable Wind from North

Today is forecast to be Warmer than yesterday.

Today
High -- | Low -- °F
--% Chance of Precip.
Yesterday
High -- | Low -- °F
Precip. -- in
6:17 AM 8:39 PM
Waxing Crescent, 33% visible
Pressure 30.36 in
Visibility 10.0 miles
Clouds Clear
Dew Point 37 °F
Humidity 48%
Rainfall 0.00 in
Snow Depth Not available.
UV 0 out of 12
Pollen 6.20 out of 12
Air Quality Not available.
Flu Activity Not available.
METAR KEMM 020715Z AUTO 36009KT 10SM CLR 14/03 A3036 RMK AO2

More Conditions Fewer Conditions

Pressure 30.36 in
Visibility 10.0 miles
Clouds Clear
Dew Point 37 °F
Humidity 48%
Rainfall 0.00 in
Snow Depth Not available.
UV 0 out of 12
Pollen 6.20 out of 12
Air Quality Not available.
Flu Activity Not available.
METAR KEMM 020715Z AUTO 36009KT 10SM CLR 14/03 A3036 RMK AO2

More Conditions Fewer Conditions

10-Day Weather Forecast

Almanac

Astronomy

Aug. 02, 2014 Rise Set
Actual Time 6:17 AM MDT 8:39 PM MDT
Civil Twilight 5:45 AM MDT 9:10 PM MDT
Nautical Twilight 5:07 AM MDT 9:48 PM MDT
Astronomical Twilight 4:23 AM MDT 10:31 PM MDT
Moon 12:48 PM MDT 11:52 PM MDT
Length of Visible Light 15h 24m
Length of Day
14h 21m
Tomorrow will be 2m 11s shorter.
Waxing Crescent, 33% of the Moon is Illuminated
Today
Waxing Crescent
Aug 3
First Quarter
Aug 10
Full
Aug 17
Last Quarter
Aug 25
New

Today's Extremes

State Highs State Lows

Community

WunderPhotos

Upload Photos

1,739,830 photos uploaded!

Nearby

Snow Depth

Station Depth Elevation
Salt River Summit 0 in 7600 ft
Willow Creek 5 in 8450 ft
Blind Bull Summit 1 in 8900 ft
Big Sandy Opening 1 in 9080 ft
Loomis Park 0 in 8240 ft

Earthquake Activity

City Distance Mag. Time & Date
No recent earthquake activity has been reported nearby.
Minimum magnitude displayed is 2.5.

Coastal Water Temperatures

Place Temperature
No Stations Reporting

Nearby Weather Stations

Station Location Temp. Dew Point Humidity Wind Precip. Elev Updated Type
HADS KEMMERER 3 WNW WY, Kemmerer, WY 61 °F - - North  at  - 0.00 in / hr 6979 ft 12:00 AM MDT MADIS
Kemmerer, Kemmerer, WY 59.0 °F 35 °F 40% North  at  3.0 mph 0.00 in / hr 6985 ft 1:20 AM MDT Rapid Fire
MesoWest FOSSIL , Hamsfork, WY 56 °F - - North  at  - 0.00 in / hr 6989 ft 12:00 AM MDT MADIS
MesoWest WATERF , Diamondville, WY 63 °F - - North  at  - 0.00 in / hr 6789 ft 12:00 AM MDT MADIS

Show More Stations Show Fewer Stations